map of KBPG home
Great Circle Mapper logo
KBPG - Airport
Location
City:  Big Spring, Texas, United States
Name:Big Spring Mc Mahon-Wrinkle Airport
ICAO:KBPG
FAA:BPG

Details
Type:Airport (Airfield)
Use:Public/Civil
Latitude:3212'45"N (32.212611)
Longitude:10131'18"W (-101.521638)
Datum:WGS 1984
Elevation:2573 ft (784 m)
Variation:6.20E (WMM2015 magnetic declination)
-0.10 annual change
Runways:2
Longest:8802 × 100 ft (2683 × 30.5 m), paved

Time
Time Zone:UTC-6 (DST-5)
Local Time:

Weather
METAR:KBPG 190855Z AUTO 25004KT 10SM CLR 14/M03 A2983 RMK AO2 T01351026

Related Locations
Nearby:
Farthest:RRG: 11169 mi / 17975 km
Plaine Corail, Rodrigues Island, MU

Find:

   beyond  
but within

Other Information
Maps:
NOTAMs:
Links:
Sources:

  
flag of United States
flag of Texas
  

Sectional Chart

Flight Planning
at skyvector.com

Satellite Image

Google Maps Satellite View

 

Copyright © 2004-2015 Karl L. Swartz. All rights reserved.
The Great Circle Mapper name and logo are trademarks of the Great Circle Mapper.
All other trademarks mentioned herein belong to their respective owners.
Please see credits for attibutions and further copyright information.

  Follow gcmap on Facebook Follow gcmap on Twitter Follow gcmap on Google+

hCard Microformat

Geo Microformat